| time (UTC) | temp C | wind direction | speed KPH | gust KPH | rain 1hr cm | rain 24hr cm | rain mn cm | humidity % | barometer mb |
| 20260506203037 | 12 | 360 | 6.4 | 14.5 | 0.00 | 0.00 | 0.00 | 55 | 1016.1 |
| 20260506201539 | 12 | 38 | 3.2 | 16.1 | 0.00 | 0.00 | 0.00 | 57 | 1016.0 |
| 20260506200036 | 12 | 360 | 3.2 | 8.0 | 0.00 | 0.00 | 0.00 | 58 | 1015.9 |
| 20260506194532 | 12 | 23 | 4.8 | 12.9 | 0.00 | 0.00 | 0.00 | 58 | 1015.7 |
| 20260506193031 | 12 | 360 | 4.8 | 12.9 | 0.00 | 0.00 | 0.00 | 58 | 1015.6 |
| 20260506191527 | 12 | 360 | 3.2 | 8.0 | 0.00 | 0.00 | 0.00 | 58 | 1015.4 |
| 20260506190029 | 12 | 360 | 3.2 | 9.7 | 0.00 | 0.00 | 0.00 | 58 | 1015.3 |
| 20260506184525 | 12 | 360 | 3.2 | 12.9 | 0.00 | 0.00 | 0.00 | 58 | 1015.2 |
| 20260506183023 | 12 | 360 | 4.8 | 12.9 | 0.00 | 0.00 | 0.00 | 58 | 1015.1 |
| 20260506181519 | 12 | 54 | 3.2 | 9.7 | 0.00 | 0.00 | 0.00 | 58 | 1014.8 |
| 20260506180022 | 12 | 360 | 6.4 | 16.1 | 0.00 | 0.00 | 0.00 | 58 | 1014.7 |
| 20260506174523 | 12 | 360 | 6.4 | 16.1 | 0.00 | 0.00 | 0.00 | 57 | 1014.4 |
| 20260506173015 | 12 | 46 | 8.0 | 17.7 | 0.00 | 0.00 | 0.00 | 57 | 1014.1 |
| 20260506171525 | 13 | 23 | 9.7 | 19.3 | 0.00 | 0.00 | 0.00 | 55 | 1013.9 |
| 20260506170012 | 14 | 360 | 12.9 | 20.9 | 0.00 | 0.00 | 0.00 | 54 | 1013.9 |
| 20260506164510 | 15 | 360 | 12.9 | 24.1 | 0.00 | 0.00 | 0.00 | 54 | 1013.7 |
| 20260506163009 | 14 | 360 | 9.7 | 22.5 | 0.00 | 0.00 | 0.00 | 54 | 1013.6 |
| 20260506161509 | 14 | 360 | 8.0 | 20.9 | 0.00 | 0.00 | 0.00 | 54 | 1013.7 |
| 20260506160008 | 14 | 360 | 9.7 | 22.5 | 0.00 | 0.00 | 0.00 | 52 | 1013.7 |
| 20260506154512 | 15 | 360 | 9.7 | 25.7 | 0.00 | 0.00 | 0.00 | 52 | 1013.7 |
| 20260506153010 | 15 | 360 | 12.9 | 27.4 | 0.00 | 0.00 | 0.00 | 51 | 1013.6 |
| 20260506151509 | 15 | 360 | 11.3 | 25.7 | 0.00 | 0.00 | 0.00 | 51 | 1013.5 |
| 20260506150008 | 15 | 360 | 12.9 | 29.0 | 0.00 | 0.00 | 0.00 | 51 | 1013.5 |
| 20260506144507 | 15 | 360 | 11.3 | 24.1 | 0.00 | 0.00 | 0.00 | 53 | 1013.4 |
| 20260506143007 | 15 | 324 | 11.3 | 29.0 | 0.00 | 0.00 | 0.00 | 52 | 1013.3 |
| 20260506141506 | 15 | 360 | 11.3 | 20.9 | 0.00 | 0.00 | 0.00 | 50 | 1013.5 |
| 20260506140013 | 15 | 360 | 9.7 | 27.4 | 0.00 | 0.00 | 0.00 | 52 | 1013.5 |
| 20260506134503 | 15 | 360 | 6.4 | 24.1 | 0.00 | 0.00 | 0.00 | 53 | 1013.4 |
| 20260506133002 | 15 | 360 | 9.7 | 22.5 | 0.00 | 0.00 | 0.00 | 51 | 1013.4 |
| 20260506131617 | 15 | 30 | 6.4 | 22.5 | 0.00 | 0.00 | 0.00 | 50 | 1013.4 |
| 20260506130059 | 15 | 360 | 9.7 | 24.1 | 0.00 | 0.00 | 0.00 | 51 | 1013.3 |
| 20260506124559 | 14 | 54 | 11.3 | 24.1 | 0.00 | 0.00 | 0.00 | 52 | 1013.2 |
| 20260506123058 | 14 | 360 | 9.7 | 24.1 | 0.00 | 0.00 | 0.00 | 52 | 1013.1 |
| 20260506121600 | 15 | 38 | 8.0 | 20.9 | 0.00 | 0.00 | 0.00 | 53 | 1013.1 |
| 20260506120101 | 14 | 360 | 8.0 | 22.5 | 0.00 | 0.00 | 0.00 | 54 | 1013.1 |
| 20260506114557 | 15 | 360 | 8.0 | 24.1 | 0.00 | 0.00 | 0.00 | 57 | 1013.0 |
| 20260506113053 | 14 | 50 | 8.0 | 22.5 | 0.00 | 0.00 | 0.00 | 57 | 1013.0 |
| 20260506111551 | 14 | 360 | 9.7 | 27.4 | 0.00 | 0.00 | 0.00 | 56 | 1013.0 |
| 20260506110050 | 14 | 360 | 4.8 | 20.9 | 0.00 | 0.00 | 0.00 | 55 | 1013.0 |
| 20260506104554 | 13 | 360 | 6.4 | 19.3 | 0.00 | 0.00 | 0.00 | 56 | 1012.9 |
| 20260506103052 | 13 | 54 | 8.0 | 19.3 | 0.00 | 0.00 | 0.00 | 56 | 1012.9 |
| 20260506101545 | 13 | 335 | 6.4 | 17.7 | 0.00 | 0.00 | 0.00 | 57 | 1012.9 |
| 20260506100053 | 12 | 360 | 6.4 | 17.7 | 0.00 | 0.00 | 0.00 | 58 | 1012.8 |
| 20260506094543 | 12 | 22 | 6.4 | 20.9 | 0.00 | 0.00 | 0.00 | 60 | 1012.8 |
| 20260506093043 | 12 | 360 | 8.0 | 16.1 | 0.00 | 0.00 | 0.00 | 59 | 1012.8 |
| 20260506091545 | 13 | 350 | 8.0 | 19.3 | 0.00 | 0.00 | 0.00 | 58 | 1012.8 |
| 20260506090041 | 12 | 360 | 6.4 | 17.7 | 0.00 | 0.00 | 0.00 | 59 | 1012.7 |
| 20260506084540 | 12 | 35 | 9.7 | 22.5 | 0.00 | 0.00 | 0.00 | 60 | 1012.7 |
| 20260506083034 | 12 | 36 | 11.3 | 24.1 | 0.00 | 0.00 | 0.00 | 61 | 1012.5 |
| 20260506081534 | 12 | 360 | 11.3 | 24.1 | 0.00 | 0.00 | 0.00 | 61 | 1012.5 |
| 20260506073026 | 11 | 360 | 6.4 | 19.3 | 0.00 | 0.00 | 0.00 | 64 | 1012.6 |
| 20260506071522 | 11 | 29 | 8.0 | 20.9 | 0.00 | 0.00 | 0.00 | 64 | 1012.4 |
| 20260506061512 | 10 | 360 | 4.8 | 16.1 | 0.00 | 0.00 | 0.00 | 67 | 1012.4 |
| 20260506044524 | 10 | 360 | 9.7 | 19.3 | 0.00 | 0.00 | 0.00 | 64 | 1012.5 |
| 20260506043010 | 10 | 360 | 8.0 | 16.1 | 0.00 | 0.00 | 0.00 | 63 | 1012.5 |
| 20260506041509 | 10 | 42 | 6.4 | 17.7 | 0.00 | 0.00 | 0.00 | 63 | 1012.4 |
| 20260506040008 | 10 | 360 | 6.4 | 24.1 | 0.00 | 0.00 | 0.00 | 63 | 1012.4 |
| 20260506034504 | 10 | 350 | 11.3 | 20.9 | 0.00 | 0.00 | 0.00 | 62 | 1012.4 |
| 20260506033001 | 10 | 360 | 9.7 | 22.5 | 0.00 | 0.00 | 0.00 | 61 | 1012.6 |
| 20260506031602 | 10 | 360 | 6.4 | 16.1 | 0.00 | 0.00 | 0.00 | 62 | 1012.7 |
| 20260506030107 | 10 | 360 | 6.4 | 16.1 | 0.00 | 0.00 | 0.00 | 63 | 1012.8 |
| 20260506024534 | 9 | 360 | 4.8 | 16.1 | 0.00 | 0.00 | 0.00 | 63 | 1013.0 |
| 20260506023028 | 9 | 44 | 6.4 | 16.1 | 0.00 | 0.00 | 0.00 | 63 | 1013.0 |
| 20260506021545 | 9 | 360 | 6.4 | 14.5 | 0.00 | 0.00 | 0.00 | 63 | 1013.2 |
| 20260506020041 | 9 | 360 | 6.4 | 16.1 | 0.00 | 0.00 | 0.00 | 63 | 1013.2 |
| 20260506014553 | 9 | 20 | 4.8 | 16.1 | 0.00 | 0.00 | 0.00 | 63 | 1013.3 |
| 20260506013042 | 8 | 31 | 6.4 | 14.5 | 0.00 | 0.00 | 0.00 | 64 | 1013.4 |
| 20260506011540 | 8 | 360 | 6.4 | 12.9 | 0.00 | 0.00 | 0.00 | 64 | 1013.3 |
| 20260506010041 | -17 | 0.0 | 0.0 | 0.00 | 0.00 | 0.00 | 1013.4 | ||
| 20260506004544 | -17 | 0.0 | 0.0 | 0.00 | 0.00 | 0.00 | 1013.4 | ||
| 20260506003033 | -17 | 0.0 | 0.0 | 0.00 | 0.00 | 0.00 | 1013.6 | ||
| 20260506001523 | 8 | 35 | 4.8 | 14.5 | 0.00 | 0.00 | 0.00 | 62 | 1013.7 |
| 20260506000025 | 8 | 32 | 8.0 | 17.7 | 0.00 | 0.00 | 0.00 | 62 | 1013.8 |
| 20260505234523 | 8 | 360 | 6.4 | 19.3 | 0.00 | 0.00 | 0.00 | 63 | 1013.8 |
| 20260505233024 | 8 | 53 | 6.4 | 16.1 | 0.00 | 0.00 | 0.00 | 62 | 1013.9 |
| 20260505231528 | 8 | 360 | 6.4 | 14.5 | 0.00 | 0.00 | 0.00 | 62 | 1014.1 |
| 20260505230039 | 8 | 36 | 4.8 | 14.5 | 0.00 | 0.00 | 0.00 | 62 | 1014.2 |
| 20260505224532 | 9 | 53 | 6.4 | 17.7 | 0.00 | 0.00 | 0.00 | 62 | 1014.2 |
| 20260505223023 | 9 | 31 | 4.8 | 12.9 | 0.00 | 0.00 | 0.00 | 62 | 1014.3 |
| 20260505221519 | 9 | 32 | 6.4 | 16.1 | 0.00 | 0.00 | 0.00 | 61 | 1014.3 |
| 20260505220016 | 10 | 360 | 8.0 | 19.3 | 0.00 | 0.00 | 0.00 | 61 | 1014.3 |
| 20260505214516 | 10 | 360 | 8.0 | 17.7 | 0.00 | 0.00 | 0.00 | 61 | 1014.5 |
| 20260505213015 | 10 | 50 | 6.4 | 19.3 | 0.00 | 0.00 | 0.00 | 60 | 1014.5 |
| 20260505211514 | 10 | 360 | 6.4 | 14.5 | 0.00 | 0.00 | 0.00 | 60 | 1014.5 |
| 20260505210014 | 10 | 360 | 9.7 | 19.3 | 0.00 | 0.00 | 0.00 | 60 | 1014.6 |
| 20260505204514 | 10 | 360 | 9.7 | 19.3 | 0.00 | 0.00 | 0.00 | 60 | 1014.6 |